Time,TemperatureF,DewpointF,PressureIn,WindDirection,WindDirectionDegrees,WindSpeedMPH,WindSpeedGustMPH,Humidity,HourlyPrecipIn,Conditions,Clouds,dailyrainin,SoftwareType,DateUTC
2013-01-20 08:53:00,12.0,9.0,30.00,NW,307,7.0,35.0,86,0.00,,,0.09,,2013-01-20 14:53:00,
2013-01-20 09:03:00,12.0,9.0,30.00,NNW,344,3.0,35.0,86,0.00,,,0.09,,2013-01-20 15:03:00,
2013-01-20 09:12:00,12.0,9.0,30.00,NNW,344,3.0,35.0,86,0.00,,,0.09,,2013-01-20 15:12:00,
2013-01-20 09:23:00,12.0,9.0,30.00,NNW,344,3.0,35.0,86,0.00,,,0.09,,2013-01-20 15:23:00,
2013-01-20 09:33:00,12.0,9.0,30.00,NW,308,1.0,35.0,86,0.00,,,0.09,,2013-01-20 15:33:00,
2013-01-20 09:42:00,12.0,9.0,30.00,NW,308,1.0,35.0,86,0.00,,,0.09,,2013-01-20 15:42:00,
2013-01-20 09:53:00,12.0,9.0,30.00,West,274,5.0,35.0,86,0.00,,,0.09,,2013-01-20 15:53:00,
2013-01-20 10:03:00,13.0,10.0,30.00,NNW,343,5.0,35.0,86,0.00,,,0.09,,2013-01-20 16:03:00,
2013-01-20 10:12:00,13.0,10.0,30.00,NNW,343,5.0,35.0,86,0.00,,,0.09,,2013-01-20 16:12:00,
2013-01-20 10:23:00,13.0,10.0,30.00,North,1,5.0,35.0,86,0.00,,,0.09,,2013-01-20 16:23:00,
2013-01-20 10:33:00,13.0,10.0,30.00,North,1,5.0,35.0,86,0.00,,,0.09,,2013-01-20 16:33:00,
2013-01-20 10:42:00,13.0,10.0,30.00,North,1,5.0,35.0,86,0.00,,,0.09,,2013-01-20 16:42:00,
2013-01-20 10:53:00,13.0,10.0,30.00,North,1,5.0,35.0,86,0.00,,,0.09,,2013-01-20 16:53:00,
2013-01-20 11:03:00,14.0,11.0,30.00,NNW,328,3.0,35.0,86,0.00,,,0.09,,2013-01-20 17:03:00,
2013-01-20 11:13:00,14.0,11.0,30.00,NNW,328,3.0,35.0,86,0.00,,,0.09,,2013-01-20 17:13:00,
2013-01-20 11:22:00,14.0,11.0,30.00,NNW,328,3.0,35.0,86,0.00,,,0.09,,2013-01-20 17:22:00,
2013-01-20 11:33:00,16.0,13.0,30.00,WNW,299,8.0,35.0,86,0.00,,,0.09,,2013-01-20 17:33:00,
2013-01-20 11:40:00,16.0,13.0,30.00,NNW,334,6.0,35.0,86,0.00,,,0.09,,2013-01-20 17:40:00,
2013-01-20 11:42:00,16.0,13.0,30.00,WNW,299,8.0,35.0,86,0.00,,,0.09,,2013-01-20 17:42:00,
2013-01-20 11:53:00,16.0,13.0,30.00,WNW,299,3.0,35.0,86,0.00,,,0.09,,2013-01-20 17:53:00,
2013-01-20 12:03:00,16.0,13.0,30.00,NNW,334,6.0,35.0,86,0.00,,,0.09,,2013-01-20 18:03:00,
2013-01-20 12:12:00,16.0,13.0,30.00,NNW,334,6.0,35.0,86,0.00,,,0.09,,2013-01-20 18:12:00,
2013-01-20 12:23:00,16.0,13.0,30.00,NNW,334,6.0,35.0,86,0.00,,,0.09,,2013-01-20 18:23:00,
2013-01-20 12:33:00,16.0,13.0,30.00,NNW,334,6.0,35.0,86,0.00,,,0.09,,2013-01-20 18:33:00,
2013-01-20 13:23:00,18.0,15.0,30.00,WNW,289,6.0,35.0,86,0.00,,,0.09,,2013-01-20 19:23:00,
2013-01-20 13:33:00,18.0,15.0,30.00,NW,314,6.0,35.0,86,0.00,,,0.09,,2013-01-20 19:33:00,
2013-01-20 13:43:00,18.0,15.0,30.00,NW,314,6.0,35.0,86,0.00,,,0.09,,2013-01-20 19:43:00,
2013-01-20 13:52:00,18.0,15.0,30.00,WNW,299,7.0,127.0,86,0.00,,,0.09,,2013-01-20 19:52:00,
2013-01-20 13:53:00,18.0,15.0,30.00,WNW,286,7.0,35.0,86,0.00,,,0.09,,2013-01-20 19:53:00,
2013-01-20 14:03:00,17.0,14.0,30.00,WNW,286,6.0,35.0,86,0.00,,,0.09,,2013-01-20 20:03:00,
2013-01-20 14:12:00,17.0,14.0,30.00,WNW,286,6.0,35.0,86,0.00,,,0.09,,2013-01-20 20:12:00,
2013-01-20 14:22:00,18.0,15.0,30.00,WNW,299,7.0,127.0,86,0.00,,,0.09,,2013-01-20 20:22:00,
2013-01-20 14:33:00,18.0,15.0,30.00,WNW,299,7.0,127.0,86,0.00,,,0.09,,2013-01-20 20:33:00,
2013-01-20 14:42:00,18.0,15.0,30.00,WNW,299,7.0,127.0,86,0.00,,,0.09,,2013-01-20 20:42:00,
2013-01-20 15:03:00,18.0,15.0,30.00,WNW,297,6.0,127.0,86,0.00,,,0.09,,2013-01-20 21:03:00,
2013-01-20 15:13:00,18.0,15.0,30.00,WNW,297,6.0,127.0,86,0.00,,,0.09,,2013-01-20 21:13:00,
2013-01-20 15:23:00,18.0,15.0,30.00,NNW,344,5.0,127.0,86,0.00,,,0.09,,2013-01-20 21:23:00,
2013-01-20 15:43:00,18.0,15.0,30.00,NNW,344,5.0,127.0,86,0.00,,,0.09,,2013-01-20 21:43:00,
2013-01-20 15:53:00,18.0,15.0,30.00,NNW,344,5.0,127.0,86,0.00,,,0.09,,2013-01-20 21:53:00,
2013-01-20 16:03:00,17.0,14.0,30.00,WNW,287,7.0,127.0,86,0.00,,,0.09,,2013-01-20 22:03:00,
2013-01-20 16:13:00,17.0,14.0,30.00,WNW,287,7.0,127.0,86,0.00,,,0.09,,2013-01-20 22:13:00,
2013-01-20 16:23:00,17.0,14.0,30.00,WNW,287,7.0,127.0,86,0.00,,,0.09,,2013-01-20 22:23:00,
2013-01-20 16:33:00,17.0,14.0,30.00,WNW,287,7.0,127.0,86,0.00,,,0.09,,2013-01-20 22:33:00,
2013-01-20 16:53:00,17.0,14.0,30.00,WSW,258,3.0,127.0,86,0.00,,,0.09,,2013-01-20 22:53:00,
2013-01-20 17:03:00,17.0,14.0,30.00,WSW,258,3.0,127.0,86,0.00,,,0.09,,2013-01-20 23:03:00,
2013-01-20 17:13:00,17.0,14.0,30.00,WSW,258,3.0,127.0,86,0.00,,,0.09,,2013-01-20 23:13:00,
2013-01-20 17:23:00,16.0,13.0,30.00,NW,307,8.0,127.0,86,0.00,,,0.09,,2013-01-20 23:23:00,
2013-01-20 17:33:00,16.0,13.0,30.00,West,269,6.0,127.0,86,0.00,,,0.09,,2013-01-20 23:33:00,
2013-01-20 17:43:00,16.0,13.0,30.00,West,269,6.0,127.0,86,0.00,,,0.09,,2013-01-20 23:43:00,
2013-01-20 17:53:00,16.0,13.0,30.00,NNW,328,5.0,127.0,86,0.00,,,0.09,,2013-01-20 23:53:00,
2013-01-20 18:03:00,16.0,13.0,30.00,West,269,6.0,127.0,86,0.00,,,0.09,,2013-01-21 00:03:00,
2013-01-20 18:13:00,16.0,13.0,30.00,West,269,6.0,127.0,86,0.00,,,0.09,,2013-01-21 00:13:00,
2013-01-20 18:22:00,16.0,13.0,30.00,West,269,6.0,127.0,86,0.00,,,0.09,,2013-01-21 00:22:00,
2013-01-20 18:33:00,16.0,13.0,30.00,NW,307,3.0,127.0,86,0.00,,,0.09,,2013-01-21 00:33:00,
2013-01-20 18:43:00,16.0,13.0,30.00,NW,307,3.0,127.0,86,0.00,,,0.09,,2013-01-21 00:43:00,
2013-01-20 18:53:00,16.0,13.0,30.00,NW,307,3.0,127.0,86,0.00,,,0.09,,2013-01-21 00:53:00,
2013-01-20 19:01:00,16.0,13.0,30.00,NW,320,5.0,127.0,86,0.00,,,0.09,,2013-01-21 01:01:00,
2013-01-20 19:03:00,15.0,12.0,30.00,WNW,303,6.0,127.0,86,0.00,,,0.09,,2013-01-21 01:03:00,
2013-01-20 19:12:00,15.0,12.0,30.00,WNW,303,6.0,127.0,86,0.00,,,0.09,,2013-01-21 01:12:00,
2013-01-20 19:23:00,16.0,13.0,30.00,NW,320,5.0,127.0,86,0.00,,,0.09,,2013-01-21 01:23:00,
2013-01-20 19:33:00,16.0,13.0,30.00,NW,320,5.0,127.0,86,0.00,,,0.09,,2013-01-21 01:33:00,
2013-01-20 19:43:00,16.0,13.0,30.00,NW,320,5.0,127.0,86,0.00,,,0.09,,2013-01-21 01:43:00,
2013-01-20 19:53:00,16.0,13.0,30.00,NW,320,5.0,127.0,86,0.00,,,0.09,,2013-01-21 01:53:00,
2013-01-20 20:03:00,15.0,12.0,30.00,NW,312,6.0,127.0,86,0.00,,,0.09,,2013-01-21 02:03:00,
2013-01-20 20:23:00,15.0,12.0,30.00,NW,312,6.0,127.0,86,0.00,,,0.09,,2013-01-21 02:23:00,
2013-01-20 20:33:00,15.0,12.0,30.00,NW,312,6.0,127.0,86,0.00,,,0.09,,2013-01-21 02:33:00,
2013-01-20 20:43:00,15.0,12.0,30.00,NW,312,6.0,127.0,86,0.00,,,0.09,,2013-01-21 02:43:00,
2013-01-20 20:53:00,15.0,12.0,30.00,NW,312,6.0,127.0,86,0.00,,,0.09,,2013-01-21 02:53:00,